SCP
0 0 0 0 0 0 0 0 0 0 0 0 0 0 0 0 0 0 0 0 0 0 0 0 0 0 0 0 0 0 0 0 0 0 0 -0 -0 -0 -0 0 0 0 -0 0
0 0 0 0 0 0 0 0 0 0 0 0 0 0 0 0 0 0 0 0 0 0 0 0 0 0 0 0 0 0 0 0 0 0 0 0 -0 -0 -0 -0 0 -0 -0 0
0 0 0 0 0 0 0 0 0 0 0 0 0 0 0 0 0 0 0 0 0 0 0 0 0 0 0 0 0 0 0 0 0 0 0 0 0 0 -0 -0 -0 0 0 0
0 0 0 0 0 0 0 0 0 0 0 0 0 0 0 0 0 0 0 0 0 0 0 0 0 0 0 0 0 0 0 0 0 0 0 0 0 0 -0 -0 -0 0 0 0
0 0 0 0 0 0 0 0 0 0 0 0 0 0 0 0 0 0 0 0 0 0 0 0 0 0 0 0 0 0 0 0 0 0 0 0 0 0 -0 -0 -0 -0 0 0
0 0 0 0 0 0 0 0 0 0 0 0 0 0 0 0 0 0 0 0 0 0 0 0 0 0 0 0 0 0 0 0 0 0 0 0 -0 -0 -0 0 0 0 0 0
0 0 0 0 0 0 0 0 0 0 0 0 0 0 0 0 0 0 0 0 0 0 0 0 0 0 0 0 0 0 0 0 0 0 0 0 0 0 0 0 0 0 0 0
0 0 0 0 0 0 0 0 0 0 0 0 0 0 0 0 0 0 0 0 0 0 0 0 0 0 0 0 0 0 0 0 0 0 0 0 0 0 0 0 0 -0 -0 0
0 0 0 0 0 0 0 0 0 0 0 0 0 0 0 0 0 0 0 0 0 0 0 0 0 0 0 0 0 0 0 0 0 0 0 0 0 0 0 0 0 0 0 -0
0 0 0 0 0 0 0 0 0 0 0 0 0 0 0 0 0 0 0 0 0 0 0 0 0 0 0 0 0 0 0 0 0 0 0 0 0 0 0 0 0 0 0 0
0 0 0 0 0 0 0 0 0 0 0 0 0 0 0 0 0 0 0 0 0 0 0 0 0 0 0 0 0 0 0 0 0 0 0 0 0 0 0 0 0 0 0 0
0 0 0 0 0 0 0 0 0 0 0 0 0 0 0 0 0 0 0 0 0 0 0 0 0 0 0 0 0 0 0 0 0 0 0 0 0 0 0 0 0 0 0 0
0 0 0 0 0 0 0 0 0 0 0 0 0 0 0 0 0 0 0 0 0 0 0 0 0 0 0 0 0 0 0 0 0 0 0 0 0 0 0 0 0 0 0 0
0 0 0 0 0 0 0 0 0 0 0 0 0 0 0 0 0 0 0 0 0 0 0 0 0 0 0 0 0 0 0 0 0 0 0 0 0 0 0 0 0 0 0 0
-0 -0 0 0 0 0 0 0 0 0 0 0 0 0 0 0 0 0 0 0 0 0 0 0 0 0 0 0 0 0 0 0 0 0 0 0 0 0 0 0 0 0 0 0
0 0 -0 -0 0 0 0 0 0 0 0 0 0 0 0 0 0 0 0 0 0 0 0 0 0 0 0 0 0 0 0 0 0 0 0 0 0 0 0 0 0 0 0 0
0 -0 0 -0 -0 -0 0 0 0 0 -0 0 0 0 0 0 0 0 0 0 0 0 0 0 0 0 0 0 0 0 0 0 0 0 0 0 0 0 0 0 0 0 0 0
0 0 0 -0 -0 0 0 0 0 0 0 -0 0 0 0 0 0 0 0 0 0 0 0 0 0 0 0 0 0 0 0 0 0 0 0 0 0 0 0 0 0 0 0 0
0 0 0 0 0 0 0 0 0 0 0 0 0 0 0 0 0 0 0 0 0 0 0 0 0 0 0 0 0 0 0 0 0 0 0 0 0 0 0 0 0 0 0 0
0 0 0 0 0 0 0 0 0 0 0 0 0 0 0 0 0 0 0 0 0 0 0 0 0 0 0 0 0 0 0 0 0 0 0 0 0 0 0 0 0 0 0 0
0 0 0 0 0 0 0 0 0 0 0 0 0 0 0 0 0 0 0 0 0 0 0 0 0 0 0 0 0 0 0 0 0 0 0 0 0 0 0 0 0 0 0 0
0 0 0 0 0 0 0 0 0 0 0 0 0 0 0 0 0 0 0 0 0 0 0 0 0 0 0 0 0 0 0 0 0 0 0 0 0 0 0 0 0 0 0 0
0 0 0 0 0 0 0 0 0 0 0 0 0 0 0 0 0 0 0 0 0 0 0 0 0 0 0 0 0 0 0 0 0 0 0 0 0 0 0 0 0 0 0 0
0 0 0 0 0 0 0 0 0 0 0 0 0 -0 0 0 0 0 0 0 0 0 0 0 0 0 0 0 0 0 0 0 0 0 0 0 0 0 0 0 0 0 0 0
-0 -0 0 0 0 0 0 0 0 0 0 -0 0 0 0 0 0 0 0 0 0 0 0 0 0 0 0 0 0 0 0 0 0 0 0 0 0 0 0 0 0 0 0 0
0 -0 0 0 0 0 0 -0 -0 -0 0 0 0 0 0 0 0 0 0 0 0 0 0 0 0 0 0 0 0 0 0 0 0 0 0 0 0 0 0 0 0 0 0 0
-0 -0 0 0 0 -0 0 0 0 -0 0 0 0 0 0 0 0 0 0 0 0 0 0 0 0 0 0 0 0 0 0 0 0 0 0 0 0 0 0 0 0 0 0 0
Wind_Speed_500mb
36 34 34 37 40 36 25 12 8 9 15 5 1 5 10 3 6 10 8 6 13 14 10 8 7 11 11 16 15 11 7 7 7 11 2 2 8 4 9 7 8 2 4 11
37 37 34 35 36 34 28 15 11 15 21 5 6 7 8 10 10 9 8 10 12 8 11 5 11 8 3 19 12 12 9 3 3 11 6 2 9 10 8 6 3 12 9 11
44 42 37 32 30 30 26 8 5 9 21 9 7 4 10 8 11 6 10 6 4 5 9 12 5 6 6 14 11 10 9 5 11 13 9 7 8 9 9 11 4 6 12 17
52 51 41 35 29 26 20 9 8 7 6 10 9 6 3 7 8 11 16 6 15 15 11 7 12 10 5 4 8 6 9 9 7 10 13 6 8 11 16 16 18 16 19 16
58 58 48 43 32 25 21 10 6 6 9 8 10 13 11 17 9 15 11 12 9 16 14 16 16 12 10 11 3 9 1 6 8 8 3 12 13 17 18 22 11 18 10 40
69 64 58 51 42 32 15 17 16 7 9 4 7 10 13 13 10 18 12 19 9 10 31 29 9 15 6 12 17 15 10 8 4 7 6 8 15 23 26 11 11 15 20 33
78 69 64 60 52 45 40 32 21 12 8 7 11 5 8 10 14 8 3 18 12 5 6 10 5 6 6 13 12 16 13 10 5 5 5 6 11 5 6 21 18 28 23 21
87 79 71 65 62 54 50 43 37 19 7 21 11 24 16 30 37 12 14 18 14 13 10 4 1 4 3 4 6 8 5 9 5 5 6 14 9 6 11 13 13 16 31 26
22 9 31 31 40 49 55 51 46 31 9 19 39 13 14 7 7 4 10 10 16 20 5 5 11 11 9 7 2 7 8 7 7 6 7 11 6 3 9 5 12 2 12 12
38 17 5 18 22 24 27 31 43 46 13 17 28 14 10 11 6 3 3 9 12 17 6 7 7 9 6 9 15 12 8 3 13 8 7 15 16 9 10 3 11 5 6 6
51 44 38 18 14 12 15 13 7 21 15 22 22 40 33 15 11 6 9 6 5 5 8 8 8 8 10 5 10 13 15 16 9 7 6 16 25 14 13 9 1 4 7 11
36 44 37 39 35 15 19 13 7 13 14 15 27 47 47 44 38 22 19 6 9 17 5 3 4 6 3 7 7 3 7 12 11 18 13 5 38 12 28 10 14 12 13 15
36 32 31 31 32 42 32 22 20 16 12 30 32 43 43 47 47 36 14 21 25 16 13 10 3 8 8 9 11 7 9 11 6 3 11 24 43 40 44 44 46 43 40 36
31 32 34 29 28 31 33 37 39 29 19 12 13 8 20 23 34 38 41 52 26 20 21 9 6 6 21 8 3 10 6 16 9 10 14 40 54 52 52 41 33 33 34 44
29 30 32 28 31 30 32 35 38 34 22 9 27 60 64 54 59 52 47 38 40 19 12 7 8 8 4 2 1 7 17 13 12 27 46 33 38 56 42 41 45 36 38 41
41 36 28 24 23 26 32 11 5 1 19 11 6 11 19 32 24 29 43 40 26 17 10 6 9 10 10 6 6 8 40 61 69 52 61 59 51 44 38 50 61 42 34 37
39 39 35 26 26 23 18 13 11 18 48 14 11 8 8 6 11 12 16 27 23 27 10 15 10 12 17 4 13 7 10 19 34 46 50 48 53 37 39 42 43 42 41 44
40 37 36 35 30 37 44 47 38 36 12 9 5 7 11 4 6 8 14 14 19 19 10 7 7 8 12 9 12 15 12 21 27 32 32 31 39 38 38 38 36 36 36 31
37 35 35 34 30 15 8 8 11 14 19 8 11 5 6 2 4 5 8 11 5 9 6 6 14 5 8 9 8 12 15 12 29 41 47 48 44 38 25 16 16 18 19 28
32 26 11 9 8 8 26 11 8 16 21 20 6 4 4 4 5 3 3 6 5 5 8 14 6 4 15 29 21 18 18 16 17 23 32 29 14 10 15 18 22 27 31 32
20 6 12 14 18 20 6 6 7 13 5 5 5 23 12 23 8 8 14 5 4 5 8 12 7 3 7 21 20 20 18 17 16 16 12 12 16 20 21 18 19 22 21 19
5 8 16 11 5 4 0 6 8 6 6 14 11 14 12 9 18 9 10 8 4 10 14 6 4 3 21 22 22 22 23 22 22 19 18 20 21 22 22 21 17 12 9 8
7 7 4 1 2 6 5 6 6 5 15 14 27 11 9 8 5 10 4 4 3 3 3 6 4 21 30 27 23 19 21 23 23 24 25 26 25 23 22 21 19 15 11 11
7 7 3 1 6 4 5 5 5 8 13 32 31 12 6 8 5 3 6 3 4 5 6 6 6 29 31 34 35 32 29 26 25 27 25 23 19 19 16 15 14 11 8 5
5 5 2 5 4 2 3 8 11 10 18 27 15 14 7 4 6 5 5 7 7 8 5 4 26 27 27 30 30 29 30 30 29 29 27 25 23 20 17 14 11 8 5 2
4 4 5 2 3 5 9 12 12 20 30 18 5 5 6 4 5 5 10 6 7 5 3 15 20 19 22 25 25 26 26 28 28 27 27 25 24 24 22 20 16 14 14 15
4 4 4 3 5 3 7 11 17 26 14 4 4 8 6 6 5 6 7 6 4 9 14 18 15 21 23 23 23 23 26 28 29 29 29 29 28 26 25 24 23 23 22 24
Wind_Direction_500mb
302 313 322 328 334 337 334 316 315 212 187 166 249 217 198 252 226 215 238 209 195 192 191 235 247 224 220 172 159 172 203 150 188 197 321 217 170 246 159 137 212 119 141 279
289 298 307 320 330 340 335 299 246 222 192 232 236 264 278 231 171 216 201 239 212 180 192 224 205 222 226 173 155 170 192 208 35 349 357 346 220 192 154 102 73 197 146 263
280 284 293 302 316 328 333 279 299 196 200 217 185 232 247 250 220 217 200 234 167 172 217 203 241 238 208 196 199 165 145 186 193 194 204 142 194 201 178 134 147 194 219 250
267 270 277 280 291 305 325 243 245 227 238 242 193 179 233 209 244 218 199 227 213 186 216 205 219 210 167 201 207 138 146 218 190 253 249 229 235 215 176 196 205 197 253 220
260 266 264 269 271 281 287 258 249 277 275 268 175 186 233 203 219 163 231 214 209 197 206 196 198 164 188 190 135 175 291 221 158 282 316 223 262 236 221 221 220 261 283 269
255 256 258 256 256 262 247 234 250 251 253 230 144 225 216 221 177 231 216 208 157 206 236 229 220 204 181 168 157 180 163 160 121 263 348 313 289 238 206 180 209 185 217 246
251 248 248 248 248 254 256 250 234 193 247 200 204 245 217 232 227 239 221 199 158 220 180 116 153 172 211 177 187 159 148 148 160 262 344 254 243 161 181 210 241 216 264 257
246 244 242 244 246 244 241 246 230 209 234 217 268 254 241 265 259 237 227 217 210 177 160 60 38 330 310 216 19 204 160 139 152 204 218 292 283 194 159 178 279 220 230 264
44 128 190 216 230 241 244 238 233 222 202 213 239 223 225 240 218 260 211 203 189 174 127 148 207 217 220 212 123 50 90 74 140 143 187 227 259 221 188 192 299 222 185 238
23 350 325 192 195 205 228 223 230 233 226 210 198 202 210 197 210 227 183 173 167 180 146 189 182 237 168 191 178 169 141 185 206 184 226 283 240 167 149 141 240 170 202 212
332 343 19 358 326 292 304 239 235 215 226 234 234 235 220 186 194 177 163 124 208 110 179 179 210 196 221 187 164 180 168 157 188 142 172 262 158 112 175 221 166 229 244 254
343 346 344 344 10 2 332 330 257 311 271 260 240 241 231 231 240 256 221 239 170 187 141 216 129 201 158 178 238 9 223 195 181 187 208 243 193 213 219 249 278 272 283 289
338 340 339 342 325 319 348 328 319 321 305 301 265 255 252 241 236 226 231 224 226 206 208 164 158 227 142 180 228 206 234 175 221 141 241 240 255 249 258 263 268 281 282 281
330 327 340 321 324 326 320 316 311 313 319 283 290 257 274 266 248 246 256 244 253 227 214 206 206 202 195 214 248 199 187 148 195 260 284 284 278 273 281 281 289 287 293 291
314 312 316 306 328 319 311 308 310 274 233 277 290 290 286 274 264 254 262 266 234 212 180 206 205 209 172 182 356 228 193 196 222 259 260 257 276 283 292 299 297 302 298 293
307 297 288 311 305 306 318 316 278 125 245 247 271 275 278 281 271 244 241 237 221 231 205 211 218 196 196 223 234 261 233 240 239 250 267 274 280 288 293 298 302 297 285 283
301 307 313 293 297 304 277 264 272 269 313 351 304 277 279 305 221 204 213 229 225 214 231 215 197 196 199 240 249 199 278 296 275 266 277 285 289 298 302 297 296 292 291 291
293 295 297 310 301 287 279 286 281 268 244 204 255 271 316 218 169 137 182 189 199 208 217 193 189 167 202 250 224 229 274 310 284 278 286 292 296 300 307 306 299 288 280 273
296 291 293 300 289 270 287 304 258 225 223 227 217 204 249 305 65 104 175 192 195 207 207 214 165 168 218 357 0 319 335 322 301 294 289 291 298 305 311 308 323 313 293 296
291 292 278 257 234 271 304 283 227 209 207 222 259 250 277 153 190 201 201 221 247 211 222 168 217 212 92 30 34 23 9 354 340 338 336 342 336 339 311 308 306 298 291 288
310 220 218 244 270 292 255 267 256 202 219 229 264 224 231 229 180 199 215 201 210 233 211 183 191 127 357 16 31 23 20 27 30 24 10 338 331 331 326 317 307 303 297 287
250 276 296 269 269 229 69 251 311 337 26 356 334 323 295 278 217 195 191 196 152 236 143 196 112 35 1 18 23 21 24 29 30 25 23 19 9 353 348 341 343 338 331 311
253 220 229 247 277 53 175 310 322 343 344 341 344 332 296 296 262 244 244 252 204 91 107 71 39 346 11 21 24 31 31 39 42 41 41 44 46 39 40 34 30 28 49 69
162 156 244 208 332 255 193 197 220 295 294 317 322 275 286 301 323 297 29 315 17 58 58 60 357 0 21 39 42 41 34 34 36 39 41 38 34 33 41 49 45 28 15 4
110 153 189 214 229 244 335 311 301 317 305 323 308 286 254 313 337 354 15 29 57 37 60 51 350 359 16 32 37 32 32 33 32 28 26 25 22 22 23 22 17 13 357 337
86 64 66 46 16 338 24 339 323 343 326 334 289 315 0 13 326 352 11 55 38 64 63 5 356 13 20 23 23 23 17 16 14 13 11 6 5 5 360 352 339 323 307 291
54 40 85 46 61 18 340 333 338 347 348 13 356 19 354 300 35 38 18 31 35 25 352 344 3 8 15 17 15 15 13 10 8 6 4 3 2 359 351 347 341 330 320 308
Wind_Speed_850mb
36 34 34 37 40 36 25 12 8 9 15 5 1 5 10 3 6 10 8 6 13 14 10 8 7 11 11 16 15 11 7 7 7 11 2 2 8 4 9 7 8 2 4 11
37 37 34 35 36 34 28 15 11 15 21 5 6 7 8 10 10 9 8 10 12 8 11 5 11 8 3 19 12 12 9 3 3 11 6 2 9 10 8 6 3 12 9 11
44 42 37 32 30 30 26 8 5 9 21 9 7 4 10 8 11 6 10 6 4 5 9 12 5 6 6 14 11 10 9 5 11 13 9 7 8 9 9 11 4 6 12 17
52 51 41 35 29 26 20 9 8 7 6 10 9 6 3 7 8 11 16 6 15 15 11 7 12 10 5 4 8 6 9 9 7 10 13 6 8 11 16 16 18 16 19 16
58 58 48 43 32 25 21 10 6 6 9 8 10 13 11 17 9 15 11 12 9 16 14 16 16 12 10 11 3 9 1 6 8 8 3 12 13 17 18 22 11 18 10 40
69 64 58 51 42 32 15 17 16 7 9 4 7 10 13 13 10 18 12 19 9 10 31 29 9 15 6 12 17 15 10 8 4 7 6 8 15 23 26 11 11 15 20 33
78 69 64 60 52 45 40 32 21 12 8 7 11 5 8 10 14 8 3 18 12 5 6 10 5 6 6 13 12 16 13 10 5 5 5 6 11 5 6 21 18 28 23 21
87 79 71 65 62 54 50 43 37 19 7 21 11 24 16 30 37 12 14 18 14 13 10 4 1 4 3 4 6 8 5 9 5 5 6 14 9 6 11 13 13 16 31 26
22 9 31 31 40 49 55 51 46 31 9 19 39 13 14 7 7 4 10 10 16 20 5 5 11 11 9 7 2 7 8 7 7 6 7 11 6 3 9 5 12 2 12 12
38 17 5 18 22 24 27 31 43 46 13 17 28 14 10 11 6 3 3 9 12 17 6 7 7 9 6 9 15 12 8 3 13 8 7 15 16 9 10 3 11 5 6 6
51 44 38 18 14 12 15 13 7 21 15 22 22 40 33 15 11 6 9 6 5 5 8 8 8 8 10 5 10 13 15 16 9 7 6 16 25 14 13 9 1 4 7 11
36 44 37 39 35 15 19 13 7 13 14 15 27 47 47 44 38 22 19 6 9 17 5 3 4 6 3 7 7 3 7 12 11 18 13 5 38 12 28 10 14 12 13 15
36 32 31 31 32 42 32 22 20 16 12 30 32 43 43 47 47 36 14 21 25 16 13 10 3 8 8 9 11 7 9 11 6 3 11 24 43 40 44 44 46 43 40 36
31 32 34 29 28 31 33 37 39 29 19 12 13 8 20 23 34 38 41 52 26 20 21 9 6 6 21 8 3 10 6 16 9 10 14 40 54 52 52 41 33 33 34 44
29 30 32 28 31 30 32 35 38 34 22 9 27 60 64 54 59 52 47 38 40 19 12 7 8 8 4 2 1 7 17 13 12 27 46 33 38 56 42 41 45 36 38 41
41 36 28 24 23 26 32 11 5 1 19 11 6 11 19 32 24 29 43 40 26 17 10 6 9 10 10 6 6 8 40 61 69 52 61 59 51 44 38 50 61 42 34 37
39 39 35 26 26 23 18 13 11 18 48 14 11 8 8 6 11 12 16 27 23 27 10 15 10 12 17 4 13 7 10 19 34 46 50 48 53 37 39 42 43 42 41 44
40 37 36 35 30 37 44 47 38 36 12 9 5 7 11 4 6 8 14 14 19 19 10 7 7 8 12 9 12 15 12 21 27 32 32 31 39 38 38 38 36 36 36 31
37 35 35 34 30 15 8 8 11 14 19 8 11 5 6 2 4 5 8 11 5 9 6 6 14 5 8 9 8 12 15 12 29 41 47 48 44 38 25 16 16 18 19 28
32 26 11 9 8 8 26 11 8 16 21 20 6 4 4 4 5 3 3 6 5 5 8 14 6 4 15 29 21 18 18 16 17 23 32 29 14 10 15 18 22 27 31 32
20 6 12 14 18 20 6 6 7 13 5 5 5 23 12 23 8 8 14 5 4 5 8 12 7 3 7 21 20 20 18 17 16 16 12 12 16 20 21 18 19 22 21 19
5 8 16 11 5 4 0 6 8 6 6 14 11 14 12 9 18 9 10 8 4 10 14 6 4 3 21 22 22 22 23 22 22 19 18 20 21 22 22 21 17 12 9 8
7 7 4 1 2 6 5 6 6 5 15 14 27 11 9 8 5 10 4 4 3 3 3 6 4 21 30 27 23 19 21 23 23 24 25 26 25 23 22 21 19 15 11 11
7 7 3 1 6 4 5 5 5 8 13 32 31 12 6 8 5 3 6 3 4 5 6 6 6 29 31 34 35 32 29 26 25 27 25 23 19 19 16 15 14 11 8 5
5 5 2 5 4 2 3 8 11 10 18 27 15 14 7 4 6 5 5 7 7 8 5 4 26 27 27 30 30 29 30 30 29 29 27 25 23 20 17 14 11 8 5 2
4 4 5 2 3 5 9 12 12 20 30 18 5 5 6 4 5 5 10 6 7 5 3 15 20 19 22 25 25 26 26 28 28 27 27 25 24 24 22 20 16 14 14 15
4 4 4 3 5 3 7 11 17 26 14 4 4 8 6 6 5 6 7 6 4 9 14 18 15 21 23 23 23 23 26 28 29 29 29 29 28 26 25 24 23 23 22 24
Wind_Direction_850mb
302 313 322 328 334 337 334 316 315 212 187 166 249 217 198 252 226 215 238 209 195 192 191 235 247 224 220 172 159 172 203 150 188 197 321 217 170 246 159 137 212 119 141 279
289 298 307 320 330 340 335 299 246 222 192 232 236 264 278 231 171 216 201 239 212 180 192 224 205 222 226 173 155 170 192 208 35 349 357 346 220 192 154 102 73 197 146 263
280 284 293 302 316 328 333 279 299 196 200 217 185 232 247 250 220 217 200 234 167 172 217 203 241 238 208 196 199 165 145 186 193 194 204 142 194 201 178 134 147 194 219 250
267 270 277 280 291 305 325 243 245 227 238 242 193 179 233 209 244 218 199 227 213 186 216 205 219 210 167 201 207 138 146 218 190 253 249 229 235 215 176 196 205 197 253 220
260 266 264 269 271 281 287 258 249 277 275 268 175 186 233 203 219 163 231 214 209 197 206 196 198 164 188 190 135 175 291 221 158 282 316 223 262 236 221 221 220 261 283 269
255 256 258 256 256 262 247 234 250 251 253 230 144 225 216 221 177 231 216 208 157 206 236 229 220 204 181 168 157 180 163 160 121 263 348 313 289 238 206 180 209 185 217 246
251 248 248 248 248 254 256 250 234 193 247 200 204 245 217 232 227 239 221 199 158 220 180 116 153 172 211 177 187 159 148 148 160 262 344 254 243 161 181 210 241 216 264 257
246 244 242 244 246 244 241 246 230 209 234 217 268 254 241 265 259 237 227 217 210 177 160 60 38 330 310 216 19 204 160 139 152 204 218 292 283 194 159 178 279 220 230 264
44 128 190 216 230 241 244 238 233 222 202 213 239 223 225 240 218 260 211 203 189 174 127 148 207 217 220 212 123 50 90 74 140 143 187 227 259 221 188 192 299 222 185 238
23 350 325 192 195 205 228 223 230 233 226 210 198 202 210 197 210 227 183 173 167 180 146 189 182 237 168 191 178 169 141 185 206 184 226 283 240 167 149 141 240 170 202 212
332 343 19 358 326 292 304 239 235 215 226 234 234 235 220 186 194 177 163 124 208 110 179 179 210 196 221 187 164 180 168 157 188 142 172 262 158 112 175 221 166 229 244 254
343 346 344 344 10 2 332 330 257 311 271 260 240 241 231 231 240 256 221 239 170 187 141 216 129 201 158 178 238 9 223 195 181 187 208 243 193 213 219 249 278 272 283 289
338 340 339 342 325 319 348 328 319 321 305 301 265 255 252 241 236 226 231 224 226 206 208 164 158 227 142 180 228 206 234 175 221 141 241 240 255 249 258 263 268 281 282 281
330 327 340 321 324 326 320 316 311 313 319 283 290 257 274 266 248 246 256 244 253 227 214 206 206 202 195 214 248 199 187 148 195 260 284 284 278 273 281 281 289 287 293 291
314 312 316 306 328 319 311 308 310 274 233 277 290 290 286 274 264 254 262 266 234 212 180 206 205 209 172 182 356 228 193 196 222 259 260 257 276 283 292 299 297 302 298 293
307 297 288 311 305 306 318 316 278 125 245 247 271 275 278 281 271 244 241 237 221 231 205 211 218 196 196 223 234 261 233 240 239 250 267 274 280 288 293 298 302 297 285 283
301 307 313 293 297 304 277 264 272 269 313 351 304 277 279 305 221 204 213 229 225 214 231 215 197 196 199 240 249 199 278 296 275 266 277 285 289 298 302 297 296 292 291 291
293 295 297 310 301 287 279 286 281 268 244 204 255 271 316 218 169 137 182 189 199 208 217 193 189 167 202 250 224 229 274 310 284 278 286 292 296 300 307 306 299 288 280 273
296 291 293 300 289 270 287 304 258 225 223 227 217 204 249 305 65 104 175 192 195 207 207 214 165 168 218 357 0 319 335 322 301 294 289 291 298 305 311 308 323 313 293 296
291 292 278 257 234 271 304 283 227 209 207 222 259 250 277 153 190 201 201 221 247 211 222 168 217 212 92 30 34 23 9 354 340 338 336 342 336 339 311 308 306 298 291 288
310 220 218 244 270 292 255 267 256 202 219 229 264 224 231 229 180 199 215 201 210 233 211 183 191 127 357 16 31 23 20 27 30 24 10 338 331 331 326 317 307 303 297 287
250 276 296 269 269 229 69 251 311 337 26 356 334 323 295 278 217 195 191 196 152 236 143 196 112 35 1 18 23 21 24 29 30 25 23 19 9 353 348 341 343 338 331 311
253 220 229 247 277 53 175 310 322 343 344 341 344 332 296 296 262 244 244 252 204 91 107 71 39 346 11 21 24 31 31 39 42 41 41 44 46 39 40 34 30 28 49 69
162 156 244 208 332 255 193 197 220 295 294 317 322 275 286 301 323 297 29 315 17 58 58 60 357 0 21 39 42 41 34 34 36 39 41 38 34 33 41 49 45 28 15 4
110 153 189 214 229 244 335 311 301 317 305 323 308 286 254 313 337 354 15 29 57 37 60 51 350 359 16 32 37 32 32 33 32 28 26 25 22 22 23 22 17 13 357 337
86 64 66 46 16 338 24 339 323 343 326 334 289 315 0 13 326 352 11 55 38 64 63 5 356 13 20 23 23 23 17 16 14 13 11 6 5 5 360 352 339 323 307 291
54 40 85 46 61 18 340 333 338 347 348 13 356 19 354 300 35 38 18 31 35 25 352 344 3 8 15 17 15 15 13 10 8 6 4 3 2 359 351 347 341 330 320 308